Weather History for Port Isabel, TX

Change the Weather History Date:

Thursday, May 2, 2013

  Actual Average Record
Temperature  
Mean Temperature 74 °F -  
Max Temperature 84 °F - - ()
Min Temperature 62 °F - - ()
Cooling Degree Days 9    
Growing Degree Days 24 (Base 50)    
Moisture  
Dew Point 65 °F    
Average Humidity 72    
Maximum Humidity 94    
Minimum Humidity 51    
Precipitation  
Precipitation 0.00 in - - ()
Sea Level Pressure  
Sea Level Pressure 29.99 in    
Wind  
Wind Speed 12 mph (NE)    
Max Wind Speed 29 mph    
Max Gust Speed 37 mph    
Visibility 8 miles    
Events      
T = Trace of Precipitation, MM = Missing Value Source: NWS Daily Summary

Daily Weather History Graph

Daily Weather History Graph

Search for Another Location

Airport:

Trip Planner

Search our weather history database for the weather conditions in past years. The results will help you decide how hot, cold, wet, or windy it might be!

Date:

Astronomy

May. 02, 2013 Rise Set
Actual Time 6:51 AM CDT 8:01 PM CDT
Civil Twilight 6:26 AM CDT 8:26 PM CDT
Nautical Twilight 5:57 AM CDT 8:55 PM CDT
Astronomical Twilight 5:28 AM CDT 9:25 PM CDT
Moon 1:56 AM CDT (5/2) 1:32 PM CDT (5/2)
Length of Visible Light 13h 59m
Length of Day
13h 10m
Waning Gibbous, 47% of the Moon is Illuminated
May 2
Waning Gibbous
May 9
New
May 17
First Quarter
May 24
Full
May 31
Last Quarter

Hourly Weather History & Observations

Time (CDT) Temp. Heat Index Dew Point Humidity Pressure Visibility Wind Dir Wind Speed Gust Speed Precip Events Conditions
12:23 AM 75.2 °F - 71.6 °F 89% 29.87 in 8.0 mi ESE 11.5 mph - N/A   Overcast
12:53 AM 75.0 °F - 72.0 °F 90% 29.87 in 7.0 mi ESE 10.4 mph - N/A   Overcast
1:53 AM 75.0 °F - 71.1 °F 87% 29.87 in 8.0 mi East 8.1 mph - N/A   Overcast
2:53 AM 75.0 °F - 71.1 °F 87% 29.86 in 7.0 mi East 10.4 mph - N/A   Overcast
3:20 AM 75.2 °F - 71.6 °F 89% 29.86 in 7.0 mi East 8.1 mph - N/A   Overcast
3:53 AM 75.0 °F - 71.1 °F 87% 29.88 in 7.0 mi East 10.4 mph - N/A   Overcast
4:07 AM 75.2 °F - 71.6 °F 89% 29.89 in 8.0 mi ENE 9.2 mph - N/A   Overcast
4:53 AM 73.9 °F - 71.1 °F 91% 29.91 in 7.0 mi NE 5.8 mph - N/A   Overcast
5:53 AM 73.0 °F - 70.0 °F 90% 29.92 in 7.0 mi North 3.5 mph - N/A   Clear
6:53 AM 71.1 °F - 69.1 °F 93% 29.92 in 6.0 mi Calm Calm - N/A   Partly Cloudy
7:03 AM 71.6 °F - 69.8 °F 94% 29.93 in 5.0 mi NNE 5.8 mph - N/A   Mostly Cloudy
7:26 AM 73.4 °F - 71.6 °F 94% 29.93 in 5.0 mi NNE 5.8 mph - N/A   Scattered Clouds
7:53 AM 73.9 °F - 71.1 °F 91% 29.94 in 5.0 mi NNE 5.8 mph - N/A   Clear
8:53 AM 77.0 °F - 70.0 °F 79% 29.95 in 7.0 mi NE 5.8 mph - N/A   Partly Cloudy
9:43 AM 78.8 °F - 66.2 °F 65% 29.98 in 9.0 mi East 4.6 mph - N/A   Mostly Cloudy
9:53 AM 79.0 °F - 66.0 °F 64% 29.98 in 9.0 mi Variable 4.6 mph - N/A   Mostly Cloudy
10:12 AM 80.6 °F 82.7 °F 66.2 °F 61% 29.98 in 9.0 mi SSE 4.6 mph - N/A   Partly Cloudy
10:53 AM 82.0 °F 84.5 °F 66.9 °F 60% 29.94 in 10.0 mi SSE 16.1 mph - N/A   Clear
11:53 AM 84.0 °F 85.4 °F 64.0 °F 51% 30.02 in 10.0 mi NE 9.2 mph - N/A   Clear
12:53 PM 84.0 °F 86.3 °F 66.0 °F 55% 30.01 in 10.0 mi NNE 13.8 mph 21.9 mph N/A   Clear
1:53 PM 82.9 °F 85.4 °F 66.9 °F 58% 30.01 in 10.0 mi NNE 19.6 mph 25.3 mph N/A   Scattered Clouds
2:53 PM 82.0 °F 83.8 °F 64.9 °F 56% 30.00 in 10.0 mi North 17.3 mph 27.6 mph N/A   Mostly Cloudy
3:53 PM 80.1 °F 82.3 °F 66.9 °F 64% 30.00 in 8.0 mi NNE 25.3 mph 35.7 mph N/A   Overcast
4:13 PM 78.8 °F - 64.4 °F 61% 30.00 in 6.0 mi NNE 28.8 mph 35.7 mph N/A   Haze
4:53 PM 75.9 °F - 64.0 °F 67% 30.02 in 5.0 mi North 25.3 mph 36.8 mph N/A   Haze
5:53 PM 73.9 °F - 61.0 °F 64% 30.04 in 6.0 mi North 24.2 mph 33.4 mph N/A   Haze
6:26 PM 73.4 °F - 60.8 °F 65% 30.06 in 8.0 mi North 18.4 mph 27.6 mph N/A   Overcast
6:53 PM 73.9 °F - 60.1 °F 62% 30.05 in 7.0 mi North 17.3 mph 26.5 mph N/A   Overcast
7:06 PM 73.4 °F - 57.2 °F 57% 30.06 in 7.0 mi North 24.2 mph 32.2 mph N/A   Overcast
7:53 PM 70.0 °F - 57.0 °F 63% 30.08 in 9.0 mi North 24.2 mph 29.9 mph N/A   Partly Cloudy
8:53 PM 70.0 °F - 55.0 °F 59% 30.13 in 10.0 mi NNW 21.9 mph 26.5 mph N/A   Overcast
9:53 PM 69.1 °F - 53.1 °F 57% 30.18 in 10.0 mi NNW 19.6 mph 31.1 mph N/A   Overcast
10:53 PM 64.9 °F - 50.0 °F 58% 30.21 in 9.0 mi North 23.0 mph 29.9 mph N/A   Overcast
11:53 PM 62.1 °F - 48.0 °F 60% 30.21 in 10.0 mi North 26.5 mph 33.4 mph N/A   Overcast